Location: Dodgeville, WI 53533, USA
(43.0344°N, 90.0900°W)
Time: 18:15:44
(UTC-06:00)

N. Korean satellite - Pass Details

Date: 30 January 2021
Orbit: 451 x 502 km, 97.2° (Epoch: 06 March)

Event Time Altitude Azimuth Distance (km) Brightness Sun altitude
Rises 04:21:56 0° 35° (NE) 2,484 10.7 -32.2°
Reaches altitude 10° 04:25:18 10° 71° (ENE) 1,594 10.0 -31.5°
Maximum altitude 04:26:26 11° 91° (E) 1,511 9.9 -31.3°
Drops below altitude 10° 04:27:33 10° 110° (ESE) 1,586 9.9 -31.1°
Sets 04:30:52 0° 146° (SSE) 2,447 10.5 -30.5°
